SL-16 DEB

基本信息
目录编号:
23709
目录名称:
SL-16 DEB
国际标识:
1995-058F
轨道中心:
EARTH
物体状态:
在轨
发射日期:
1995-10-31 UTC
轨道信息
数据来源: 国际轨道数据
星历时间: 2026-07-14T02:24:54+0800
半长轴: 7360.558km
偏心率: 0.0198215
轨道倾角: 71.037°
近地点辐角: 313.396°
升交点赤经: 51.153°
平近点角: 133.425°
近地点: 836.523km
远地点: 1128.319km
周期: 104.743分钟
每日圈数: 13.747911
详细信息
发射场:
TTMTR
轨道高度:
LEO
数据来源:
AOE Integration Group
参考系:
TEME
时间系统:
UTC
历元类型:
SGP4
2D轨道图
3D轨道图
轨道高度分析图
轨道倾角分析图
轨道综合分析图
查看轨道综合分析图